Content
SEND FEEDBACK

Daily
Averages
Monthly
Summary
Canada

SOREL, QUEBEC


Home > North America > Canada > Quebec
Elevation: 49 feet     Latitude: 46 28N     Longitude: 073 45W

WEATHER
 
SELECT A DAY
Number of Records: 203,561;   Date Range: 1/1/95 - 12/23/14
 
SHARE

PRINT THIS DATA

[ ← Previous Day ]
WEATHER ALMANAC - NOVEMBER 29, 2013
[ Next Day → ]
[ °C ]   °F
Weather ElementAverageHighLow
Temperature15 °F21.2 °F (1:00 pm)8.6 °F (6:00 am)
Dewpoint8.5 °F11 °F (1:00 pm)5 °F (4:00 am)
Humidity74.1 %92 % (7:00 am)52 % (1:00 pm)
Barometer30.63 in30.79 in (11:00 pm)30.45 in (1:00 am)
Wind Speed5.9 mph10.4 mph (2:00 pm)
Weather ElementAverage
Visibility21 mi
Wind DirectionWSW (245.6 °)

Weather ElementTotal
Precipitation---
Heating Degree Days50.1 (Base 65)
Averaged from 27 records on November 29, 2013
WEATHER CONDITIONS BREAKOUT
WIND DIRECTION BREAKOUT
WEATHER BY HOUR - NOVEMBER 29, 2013
[ °C ]   °F
Local TimeTemperatureDewpointHumidityBarometerVisibilityWind DirectionWind SpeedGust SpeedPrecipitationEventsConditions
1:00 AM15.0 °F8.0 °F61 %30.45 in15.0 miWNW (300°)8.1 mphScattered Clouds
1:00 AM14.0 °F6.8 °F73 %30.45 in15.0 miWNW (300°)6.9 mphPartly Cloudy
2:00 AM14.0 °F6.8 °F73 %30.48 in15.0 miWNW (290°)6.9 mphPartly Cloudy
3:00 AM12.2 °F6.8 °F79 %30.49 in15.0 miWNW (290°)4.6 mphClear
4:00 AM10.4 °F5.0 °F79 %30.51 in15.0 miWSW (250°)2.3 mphClear
5:00 AM12.2 °F6.8 °F79 %30.53 in15.0 miCalmPartly Cloudy
6:00 AM8.6 °F5.0 °F85 %30.56 in15.0 miSW (230°)3.5 mphPartly Cloudy
7:00 AM10.0 °F6.0 °F79 %30.58 in28.0 miSW (230°)4.6 mphScattered Clouds
7:00 AM8.6 °F6.8 °F92 %30.58 in30.0 miWSW (240°)4.6 mphScattered Clouds
8:00 AM10.4 °F6.8 °F85 %30.60 in30.0 miWSW (250°)3.5 mphScattered Clouds
9:00 AM14.0 °F8.6 °F79 %30.63 in30.0 miWSW (250°)6.9 mphPartly Cloudy
10:00 AM15.8 °F10.4 °F79 %30.64 in30.0 miWest (280°)8.1 mphPartly Cloudy
11:00 AM17.6 °F10.4 °F73 %30.65 in30.0 miWest (260°)6.9 mphPartly Cloudy
12:00 PM19.4 °F10.4 °F68 %30.64 in30.0 miWest (270°)9.2 mphPartly Cloudy
1:00 PM21.0 °F11.0 °F52 %30.65 in28.0 miWest (260°)6.9 mphMostly Cloudy
1:00 PM21.2 °F10.4 °F63 %30.64 in30.0 miWest (260°)6.9 mphMostly Cloudy
2:00 PM21.2 °F10.4 °F63 %30.65 in30.0 miWest (270°)10.4 mphPartly Cloudy
3:00 PM21.2 °F10.4 °F63 %30.67 in30.0 miWSW (250°)6.9 mphPartly Cloudy
4:00 PM19.4 °F8.6 °F63 %30.68 in15.0 miWSW (240°)8.1 mphPartly Cloudy
5:00 PM17.6 °F8.6 °F68 %30.71 in15.0 miWSW (240°)9.2 mphPartly Cloudy
6:00 PM15.8 °F8.6 °F73 %30.72 in15.0 miWSW (240°)6.9 mphPartly Cloudy
7:00 PM16.0 °F9.0 °F62 %30.74 in15.0 miWSW (250°)5.8 mphClear
7:00 PM15.8 °F8.6 °F73 %30.74 in15.0 miWSW (250°)5.8 mphPartly Cloudy
8:00 PM15.8 °F8.6 °F73 %30.76 in15.0 miWest (260°)4.6 mphPartly Cloudy
9:00 PM14.0 °F10.4 °F86 %30.76 in15.0 miSSW (200°)3.5 mphPartly Cloudy
10:00 PM12.2 °F8.6 °F85 %30.77 in15.0 miWSW (240°)3.5 mphClear
11:00 PM12.2 °F10.4 °F92 %30.79 in15.0 miSW (230°)3.5 mphPartly Cloudy
Hourly data recorded from CYUL, located miles away from Sorel, Quebec







STORIES FROM OUR PARTNERS